Weather in Kolpino

Russia / Smolensk Oblast     54°17′15″N   33°10′18″E
temp.,
°C
wind,
m/s
gust,
m/s
humid.,
%
clouds,
%
prec.,
mm/h
press.,
hPa
HPBL,
m
11 may, tue
tue1100:00+6ene25820 0.0 102771
03:00+4ne25830 0.0 102773
06:00+5ne27830 0.0 1027141
09:00+12ene48581 0.0 1026520
12:00+16ene46484 0.0 1025925
15:00+19ene45474 0.0 10231053
18:00+18e47621 0.0 1023959
21:00+12ene39910 0.0 1024188
12 may, wed
wed1200:00+11ese3109739 0.0 1024424
03:00+8ese28951 0.0 1025219
06:00+7ese38930 0.0 1026298
09:00+12ese35645 0.0 1026658
12:00+16e354991 0.0 10241593
15:00+11ene4868100 0.0 1022844
18:00+8sse1695100 1.8 1019244
21:00+8ese3798100 4.4 1017378
13 may, thu
thu1300:00+6e289819 0.0 1017220
03:00+6ene4139747 0.0 1016381
06:00+8ese5129698 0.0 1015859
09:00+11se6118310 0.4 10151174
12:00+13sse6106157 0.3 10141623
15:00+14s575514 0.4 10141612
18:00+15s37573 0.0 10131366
21:00+9s228246 0.0 101440
14 may, fri
fri1400:00+7se22875 0.0 101431
03:00+7ese2794100 0.0 1015133
06:00+9ese31086100 0.0 1014265
09:00+13ese4108394 0.0 1013423
12:00+19ese5865100 0.3 10111233
15:00+19sse58778 3.6 10091089
18:00+19s488219 1.8 1008817
21:00+14s239611 2.4 100850
15 may, sat
sat1500:00+13s22960 0.0 100931
03:00+12se2296100 0.0 100817
06:00+12se259815 0.1 1008129
09:00+17s478499 0.3 1007583
12:00+19ssw466959 1.3 10071220
15:00+18wsw467389 2.8 1007975
18:00+17wsw477912 0.9 1007869
21:00+12wsw279720 2.0 1008157